Regional Weather Roundup
Issued by NWS Kansas City/Pleasant Hill, MO

Home | Current Version | Previous Version | Text Only | Print | Product List | Glossary On
Versions: 1 2 3 4 5 6 7 8 9 10 11 12 13 14 15 16 17 18 19 20 21 22 23 24 25 26 27 28 29 30 31 32 33 34 35 36 37 38 39 40 41 42 43 44 45 46 47 48 49 50
000
ASUS43 KEAX 201110
RWREAX

WEATHER ROUNDUP FOR EASTERN KANSAS AND NORTHWEST MISSOURI
NATIONAL WEATHER SERVICE KANSAS CITY/PLEASANT HILL MO
500 AM CST SAT DEC 20 2014

KSZ040-057-103>105-MOZ028-029-037-043-201200-
...KANSAS CITY METROPOLITAN AREA...

CITY           SKY/WX    TMP DP  RH WIND       PRES   REMARKS
K.C. INTL      CLOUDY    32  30  92 S7        30.18F WCI  26
K.C. DOWNTOWN  CLOUDY    35  31  85 SW5       30.20S WCI  31
LEES SUMMIT    CLOUDY    33  32  96 W3        30.19S
OLATHE - IXD   CLOUDY    32  31  96 CALM      30.19S
OLATHE - OJC   CLOUDY    33  31  92 CALM      30.18S
LAWRENCE       CLOUDY    34  30  85 S6        30.19S WCI  29

$$

MOZ001>008-011>017-020>025-030>033-038>040-044>046-053-054-201200-
...NORTHERN AND CENTRAL MISSOURI...

CITY           SKY/WX    TMP DP  RH WIND       PRES   REMARKS
ST. JOSEPH     CLOUDY    33  29  85 SE9       30.17F WCI  25
MOSBY          CLOUDY    32  32 100 CALM      30.20S
WARRENSBURG    CLOUDY    36  34  93 W3        30.20S FOG
WHITEMAN AFB   CLOUDY    37  36  93 W3        30.19F FOG
CLINTON        CLOUDY    37  37 100 W3        30.21S FOG
SEDALIA        FOG       38  37  97 SE5       30.19F VSB 1/2 WCI  34
WARSAW         NOT AVBL
MARSHALL       FOG       37  37 100 SE3       30.21F VSB 1/4
CHILLICOTHE      N/A     34  33  96 CALM      30.21S
MOBERLY        FOG       36  32  87 SE5       30.22S VSB 3/4 WCI  32
KIRKSVILLE     CLOUDY    32  32 100 SE6       30.20F FOG     WCI  26

$$

MOZ041-047>049-056>058-063>065-088>090-097-201200-
...EASTERN AND SOUTHERN MISSOURI...

CITY           SKY/WX    TMP DP  RH WIND       PRES   REMARKS
ST. LOUIS INTL CLOUDY    36  27  69 S3        30.25S
SPIRIT OF STL  CLOUDY    34  29  82 CALM      30.25S
COLUMBIA       CLOUDY    35  34  96 SE3       30.21S FOG
JEFFERSON CITY CLOUDY    37  34  89 E5        30.23F FOG     WCI  33
MEXICO         CLOUDY   N/A N/A N/A SE3       30.22S HAZE
HANNIBAL       CLOUDY    34  28  80 CALM      30.23S
ROLLA          CLOUDY    34  32  92 SE3       30.18F FOG
LEBANON        CLOUDY    36  34  93 S6        30.19S FOG     WCI  31
OSAGE BEACH    CLOUDY    37  34  87 SE3       30.19F
SPRINGFIELD    CLOUDY    37  36  96 S5        30.18F FOG     WCI  33
BRANSON        FOG       37  36  93 CALM      30.21R VSB<1/4
NEVADA         CLOUDY    36  36 100 SW3       30.21S
JOPLIN         CLOUDY    38  36  92 W5        30.22R WCI  34
WEST PLAINS    CLOUDY    34  31  88 CALM      30.21R

$$

IAZ060-094-KSZ022-034>040-054-083-096-NEZ052-066-093-201200-
...KANSAS...SOUTHEAST NEBRASKA AND IOWA...

CITY           SKY/WX    TMP DP  RH WIND       PRES   REMARKS
TOPEKA         CLOUDY    35  31  85 SE5       30.17F WCI  31
MANHATTAN      CLEAR     27  26  96 CALM      30.13F FOG
EMPORIA        CLEAR     31  30  96 S8        30.15S WCI  23
CHANUTE        CLOUDY    35  34  96 S3        30.19F
WICHITA        CLEAR     34  31  88 S10       30.14F FOG     WCI  26
OMAHA          FRZ DRZL  32  31  96 S12       30.12F FOG     WCI  23
LINCOLN        CLOUDY    33  32  96 SE3       30.09F FOG
FALLS CITY     CLOUDY    32  29  88 SE10      30.12F WCI  24
LAMONI         CLOUDY    31  30  96 SW5       30.16F FOG     WCI  26
DES MOINES     FRZ DRZL  32  30  92 S5        30.17F FOG     WCI  27

$$



USA.gov is the U.S. government's official web portal to all federal, state and local government web resources and services.